Regional Weather Roundup
Issued by NWS

Home | Current Version | Previous Version | Graphics & Text | Print | Product List | Glossary On
Versions: 1 2 3 4 5 6 7 8 9 10 11 12 13 14 15 16 17 18 19 20 21 22 23 24 25 26 27 28 29 30 31 32 33 34 35 36 37 38 39 40 41 42 43 44 45 46 47 48 49 50
000
ASUS43 KBIS 232210
RWRND

NORTH DAKOTA REGIONAL WEATHER ROUNDUP
NATIONAL WEATHER SERVICE BISMARCK ND
400 PM CST MON JAN 23 2017

NOTE: "FAIR" INDICATES FEW OR NO CLOUDS BELOW 12,000 FEET WITH NO
SIGNIFICANT WEATHER AND/OR OBSTRUCTIONS TO VISIBILITY.


NDZ001>003-009>011-017-232300-
NORTHWEST NORTH DAKOTA

CITY           SKY/WX    TMP DP  RH WIND       PRES   REMARKS
WILLISTON      CLOUDY    23  20  88 N6        29.79R WCI  16
MINOT          CLOUDY    25  19  78 W13       29.75S WCI  14
$$

NDZ018>021-031>035-040>046-232300-
SOUTHWEST NORTH DAKOTA

CITY           SKY/WX    TMP DP  RH WIND       PRES   REMARKS
BISMARCK       CLOUDY    31  24  75 SW6       29.78R
DICKINSON      CLOUDY    23  20  88 CALM      29.71R
GARRISON         N/A     25  21  85 NW12      29.75R WCI  14
HETTINGER ARPT CLOUDY    23  21  92 E7        29.70S FOG     WCI  15
$$

NDZ004>008-012>016-024-026-027-054-232300-
NORTHEAST NORTH DAKOTA

CITY           SKY/WX    TMP DP  RH WIND       PRES   REMARKS
GRAND FORKS    CLOUDY    30  22  72 W14       29.80R WCI  19
GRND FRKS AFB  CLOUDY    30  22  73 W6        29.80R
DEVILS LAKE    CLOUDY    25  21  85 W15       29.76R WCI  13
$$

NDZ022-023-025-028>030-036>039-047>053-232300-
SOUTHEAST NORTH DAKOTA

CITY           SKY/WX    TMP DP  RH WIND       PRES   REMARKS
FARGO          CLOUDY    35  27  72 W6        29.81R
JAMESTOWN      CLOUDY    29  22  75 W6        29.77S
$$





USA.gov is the U.S. government's official web portal to all federal, state and local government web resources and services.